DW2819 Weather Reports


Display with metric or nautical units.
time (UTC)temp
F
wind
direction
speed
MPH
gust
MPH
rain 1hr
in
rain 24hr
in
rain mn
in
humidity
%
barometer
mb
20260906212509 48 0 0.0 1.0 0.00 0.00 0.00 81 1014.4
20260906211510 49 358 0.0 2.0 0.00 0.00 0.00 80 1014.3
20260906211014 49 0 0.0 1.0 0.00 0.00 0.00 80 1014.2
20260906210504 49 0 0.0 1.0 0.00 0.00 0.00 79 1014.1
20260906210005 49 0 0.0 1.0 0.00 0.00 0.00 79 1014.0
20260906205503 50 344 0.0 1.0 0.00 0.00 0.00 78 1013.9
20260906205003 50 358 0.0 0.0 0.00 0.00 0.00 78 1013.8
20260906204501 50 355 0.0 2.0 0.00 0.00 0.00 78 1013.8
20260906204010 50 0 0.0 2.0 0.00 0.00 0.00 77 1013.9
20260906203011 51 355 0.0 1.0 0.00 0.00 0.00 76 1013.7
20260906202504 51 0 0.0 1.0 0.00 0.00 0.00 76 1013.7
20260906202005 51 340 0.0 1.0 0.00 0.00 0.00 76 1013.6
20260906201011 51 358 0.0 2.0 0.00 0.00 0.00 76 1013.4
20260906200011 51 331 1.0 2.0 0.00 0.00 0.00 75 1013.2
20260906195505 51 289 0.0 1.0 0.00 0.00 0.00 74 1013.2
20260906195005 52 348 0.0 4.0 0.00 0.00 0.00 75 1013.2
20260906194507 52 345 0.0 4.0 0.00 0.00 0.00 73 1013.1
20260906194006 52 30 0.0 5.0 0.00 0.00 0.00 73 1013.0
20260906193507 52 23 0.0 5.0 0.00 0.00 0.00 73 1013.0
20260906193011 52 343 0.0 2.0 0.00 0.00 0.00 73 1013.0
20260906192505 52 334 0.0 2.0 0.00 0.00 0.00 73 1012.9
20260906192010 52 353 1.0 3.0 0.00 0.00 0.00 73 1012.8
20260906191506 52 0 0.0 3.0 0.00 0.00 0.00 72 1012.9
20260906191004 53 299 0.0 2.0 0.00 0.00 0.00 72 1012.8
20260906190502 53 344 1.0 2.0 0.00 0.00 0.00 72 1012.8
20260906190006 53 302 0.0 4.0 0.00 0.00 0.00 72 1012.7
20260906185500 53 0 1.0 4.0 0.00 0.00 0.00 71 1012.6
20260906185003 53 216 0.0 2.0 0.00 0.00 0.00 71 1012.6
20260906184500 53 298 1.0 4.0 0.00 0.00 0.00 69 1012.6
20260906184002 53 274 1.0 4.0 0.00 0.00 0.00 70 1012.5
20260906183502 53 351 1.0 4.0 0.00 0.00 0.00 70 1012.3
20260906183006 53 292 0.0 1.0 0.00 0.00 0.00 71 1012.3
20260906182502 53 0 0.0 3.0 0.00 0.00 0.00 71 1012.3
20260906182010 53 316 0.0 3.0 0.00 0.00 0.00 71 1012.2
20260906181502 53 0 0.0 2.0 0.00 0.00 0.00 71 1012.2
20260906181003 52 279 1.0 2.0 0.00 0.00 0.00 73 1012.2
20260906180010 52 227 1.0 3.0 0.00 0.00 0.00 73 1012.1
20260906175503 53 354 0.0 2.0 0.00 0.00 0.00 73 1012.0
20260906175003 53 37 0.0 0.0 0.00 0.00 0.00 72 1012.0
20260906173501 54 35 0.0 0.0 0.00 0.00 0.00 70 1011.8
20260906172501 54 0 0.0 1.0 0.00 0.00 0.00 69 1011.6
20260906172003 54 0 0.0 1.0 0.00 0.00 0.00 68 1011.6
20260906171501 55 192 0.0 1.0 0.00 0.00 0.00 67 1011.5
20260906171003 55 347 0.0 1.0 0.00 0.00 0.00 67 1011.4
20260906170003 56 358 0.0 1.0 0.00 0.00 0.00 63 1011.4
20260906165501 56 293 0.0 2.0 0.00 0.00 0.00 63 1011.3
20260906165002 56 0 0.0 2.0 0.00 0.00 0.00 62 1011.3
20260906164502 57 245 0.0 1.0 0.00 0.00 0.00 60 1011.3
20260906164004 57 303 0.0 2.0 0.00 0.00 0.00 59 1011.2
20260906163004 57 255 2.0 3.0 0.00 0.00 0.00 60 1011.2
20260906162503 57 305 1.0 3.0 0.00 0.00 0.00 60 1011.1
20260906162001 57 282 1.0 2.0 0.00 0.00 0.00 62 1011.0
20260906161501 57 274 1.0 4.0 0.00 0.00 0.00 61 1011.0
20260906161002 57 307 1.0 4.0 0.00 0.00 0.00 61 1010.9
20260906160503 57 289 0.0 2.0 0.00 0.00 0.00 60 1010.9
20260906160002 58 28 0.0 1.0 0.00 0.00 0.00 59 1010.8
20260906155501 58 333 0.0 1.0 0.00 0.00 0.00 57 1010.8
20260906155002 58 278 0.0 1.0 0.00 0.00 0.00 56 1010.7
20260906154002 59 283 0.0 2.0 0.00 0.00 0.00 52 1010.6
20260906153502 59 344 1.0 4.0 0.00 0.00 0.00 53 1010.6
20260906153008 59 274 2.0 4.0 0.00 0.00 0.00 50 1010.5
20260906152501 59 0 0.0 3.0 0.00 0.00 0.00 49 1010.5
20260906152004 59 271 1.0 3.0 0.00 0.00 0.00 49 1010.4
20260906151502 59 312 0.0 4.0 0.00 0.00 0.00 49 1010.4
20260906150501 60 307 1.0 3.0 0.00 0.00 0.00 46 1010.3
20260906150005 60 259 1.0 3.0 0.00 0.00 0.00 46 1010.2
20260906145002 60 321 2.0 7.0 0.00 0.00 0.00 45 1010.2
20260906144006 60 250 1.0 2.0 0.00 0.00 0.00 48 1010.1
20260906143006 60 8 1.0 4.0 0.00 0.00 0.00 49 1010.0
20260906142501 60 340 1.0 4.0 0.00 0.00 0.00 47 1010.0
20260906142003 60 269 1.0 3.0 0.00 0.00 0.00 48 1009.9
20260906141003 59 0 0.0 3.0 0.00 0.00 0.00 49 1009.7
20260906140501 60 357 1.0 6.0 0.00 0.00 0.00 48 1009.7
20260906140004 59 319 1.0 6.0 0.00 0.00 0.00 46 1009.6
20260906135001 59 320 1.0 2.0 0.00 0.00 0.00 54 1009.5
20260906134501 59 347 1.0 3.0 0.00 0.00 0.00 53 1009.6
20260906134002 59 295 1.0 5.0 0.00 0.00 0.00 51 1009.5
20260906133506 60 279 2.0 11.0 0.00 0.00 0.00 48 1009.5
20260906133033 60 16 1.0 3.0 0.00 0.00 0.00 50 1009.3
20260906132740 59 276 1.0 3.0 0.00 0.00 0.00 51 1009.4
20260906131501 59 261 2.0 5.0 0.00 0.00 0.00 55 1009.4
20260906131002 59 4 2.0 4.0 0.00 0.00 0.00 57 1009.3
20260906130503 59 0 1.0 4.0 0.00 0.00 0.00 56 1009.2
20260906130002 59 226 2.0 4.0 0.00 0.00 0.00 54 1009.3
20260906125501 59 265 1.0 4.0 0.00 0.00 0.00 55 1009.2
20260906125006 59 285 2.0 3.0 0.00 0.00 0.00 54 1009.1
20260906124500 59 336 1.0 3.0 0.00 0.00 0.00 54 1009.2
20260906124002 59 317 1.0 4.0 0.00 0.00 0.00 55 1009.2
20260906123503 59 338 1.0 5.0 0.00 0.00 0.00 53 1009.2
20260906123005 59 254 2.0 5.0 0.00 0.00 0.00 53 1009.1
20260906122500 59 300 2.0 5.0 0.00 0.00 0.00 55 1009.0
20260906121002 58 316 1.0 5.0 0.00 0.00 0.00 57 1009.0
20260906120500 58 257 2.0 3.0 0.00 0.00 0.00 58 1008.9
20260906120004 58 179 1.0 3.0 0.00 0.00 0.00 56 1008.8
20260906115502 58 0 1.0 4.0 0.00 0.00 0.00 56 1008.8
20260906115002 58 265 1.0 4.0 0.00 0.00 0.00 56 1008.8
20260906114501 58 348 2.0 9.0 0.00 0.00 0.00 55 1008.8
20260906114006 58 306 1.0 9.0 0.00 0.00 0.00 55 1008.6
20260906113502 58 347 2.0 5.0 0.00 0.00 0.00 57 1008.6
20260906113005 58 329 2.0 4.0 0.00 0.00 0.00 55 1008.7
20260906112505 58 162 2.0 6.0 0.00 0.00 0.00 57 1008.4
20260906112003 58 252 2.0 6.0 0.00 0.00 0.00 55 1008.3
20260906111501 58 0 2.0 3.0 0.00 0.00 0.00 54 1008.3
20260906111003 58 348 1.0 5.0 0.00 0.00 0.00 54 1008.3
20260906110502 58 262 2.0 5.0 0.00 0.00 0.00 57 1008.3
20260906110001 58 200 1.0 5.0 0.00 0.00 0.00 55 1008.2
20260906105500 58 298 2.0 5.0 0.00 0.00 0.00 57 1008.2
20260906105004 58 288 1.0 4.0 0.00 0.00 0.00 55 1008.1
20260906104502 58 298 1.0 7.0 0.00 0.00 0.00 56 1008.0
20260906104002 58 268 1.0 7.0 0.00 0.00 0.00 56 1007.9
20260906103500 58 299 1.0 3.0 0.00 0.00 0.00 56 1007.9
20260906103003 58 0 2.0 3.0 0.00 0.00 0.00 55 1007.8
20260906102521 58 269 1.0 5.0 0.00 0.00 0.00 56 1007.8
20260906101003 58 271 2.0 9.0 0.00 0.00 0.00 54 1007.6
20260906100505 59 0 1.0 9.0 0.00 0.00 0.00 53 1007.5
20260906100000 60 0 1.0 4.0 0.00 0.00 0.00 53 1007.5
20260906095501 59 0 1.0 3.0 0.00 0.00 0.00 53 1007.4
20260906094959 59 25 1.0 3.0 0.00 0.00 0.00 53 1007.3
20260906094459 59 300 0.0 3.0 0.00 0.00 0.00 53 1007.2
20260906094001 59 348 1.0 3.0 0.00 0.00 0.00 54 1007.1
20260906093459 59 309 1.0 4.0 0.00 0.00 0.00 53 1007.1
20260906093000 58 348 1.0 6.0 0.00 0.00 0.00 54 1007.1
20260906092459 59 257 2.0 6.0 0.00 0.00 0.00 55 1007.2
20260906092003 58 323 1.0 5.0 0.00 0.00 0.00 56 1007.1
20260906091449 58 324 3.0 9.0 0.00 0.00 0.00 56 1007.2
20260906090935 58 237 2.0 9.0 0.00 0.00 0.00 55 1007.1
20260906090434 58 298 2.0 3.0 0.00 0.00 0.00 57 1007.0
20260906085433 57 283 2.0 6.0 0.00 0.00 0.00 60 1006.8
20260906084928 57 292 2.0 3.0 0.00 0.00 0.00 58 1006.8
20260906084427 58 255 1.0 3.0 0.00 0.00 0.00 60 1006.8
20260906083928 58 290 1.0 3.0 0.00 0.00 0.00 62 1006.7
20260906083427 57 341 1.0 4.0 0.00 0.00 0.00 61 1006.7
20260906082923 57 265 1.0 4.0 0.00 0.00 0.00 64 1006.6
20260906082427 57 248 1.0 7.0 0.00 0.00 0.00 64 1006.6
20260906081930 57 314 2.0 7.0 0.00 0.00 0.00 66 1006.7
20260906081409 56 290 2.0 4.0 0.00 0.00 0.00 66 1006.6
20260906080903 56 327 1.0 4.0 0.00 0.00 0.00 67 1006.6
20260906080407 56 295 1.0 4.0 0.00 0.00 0.00 69 1006.5
20260906075909 56 261 2.0 5.0 0.00 0.00 0.00 68 1006.5
20260906074903 55 313 2.0 3.0 0.00 0.00 0.00 70 1006.5
20260906074409 55 0 1.0 2.0 0.00 0.00 0.00 70 1006.4
20260906073907 54 345 1.0 3.0 0.00 0.00 0.00 71 1006.3
20260906073406 54 283 1.0 3.0 0.00 0.00 0.00 70 1006.3
20260906072904 55 345 1.0 3.0 0.00 0.00 0.00 70 1006.3
20260906072406 55 312 1.0 3.0 0.00 0.00 0.00 71 1006.3
20260906071905 54 245 1.0 4.0 0.00 0.00 0.00 72 1006.3
20260906071405 54 276 2.0 4.0 0.00 0.00 0.00 71 1006.1
20260906070904 55 306 1.0 5.0 0.00 0.00 0.00 71 1006.1
20260906070359 55 272 2.0 5.0 0.00 0.00 0.00 72 1006.2
20260906065912 54 340 2.0 7.0 0.00 0.00 0.00 71 1006.1
20260906064900 55 271 1.0 5.0 0.00 0.00 0.00 70 1006.0
20260906064400 55 309 0.0 4.0 0.00 0.00 0.00 71 1005.9
20260906063402 54 334 1.0 3.0 0.00 0.00 0.00 72 1005.8
20260906062902 54 299 1.0 3.0 0.00 0.00 0.00 72 1005.8
20260906062400 54 321 1.0 3.0 0.00 0.00 0.00 72 1005.7
20260906061401 54 299 0.0 2.0 0.00 0.00 0.00 75 1005.6
20260906060401 53 320 2.0 4.0 0.00 0.00 0.00 75 1005.6
20260906055401 53 266 0.0 4.0 0.00 0.00 0.00 77 1005.5
20260906054859 53 0 1.0 2.0 0.00 0.00 0.00 76 1005.5
20260906053902 53 279 1.0 2.0 0.00 0.00 0.00 77 1005.3
20260906053400 52 344 0.0 1.0 0.00 0.00 0.00 79 1005.2
20260906052903 51 337 0.0 1.0 0.00 0.00 0.00 79 1005.2
20260906051859 50 314 0.0 2.0 0.00 0.00 0.00 81 1005.0
20260906051402 50 334 1.0 4.0 0.00 0.00 0.00 82 1005.1
20260906050902 50 276 0.0 4.0 0.00 0.00 0.00 82 1004.9
20260906050400 50 279 0.0 2.0 0.00 0.00 0.00 83 1004.9
20260906045903 50 303 0.0 3.0 0.00 0.00 0.00 83 1005.1
20260906045402 50 344 1.0 3.0 0.00 0.00 0.00 84 1005.0
20260906044859 50 295 1.0 4.0 0.00 0.00 0.00 85 1004.9
20260906043902 49 333 1.0 3.0 0.00 0.00 0.00 86 1005.0
20260906042903 49 334 1.0 2.0 0.00 0.00 0.00 87 1004.8
20260906041901 49 306 0.0 3.0 0.00 0.00 0.00 88 1004.6
20260906041359 49 272 0.0 3.0 0.00 0.00 0.00 88 1004.5
20260906040859 49 293 0.0 2.0 0.00 0.00 0.00 88 1004.5
20260906040401 49 330 0.0 3.0 0.00 0.00 0.00 88 1004.4
20260906035859 49 305 0.0 3.0 0.00 0.00 0.00 88 1004.3
20260906034859 49 329 0.0 2.0 0.00 0.00 0.00 89 1004.2
20260906034359 49 299 0.0 2.0 0.00 0.00 0.00 89 1004.1
20260906033900 49 354 0.0 3.0 0.00 0.00 0.00 89 1004.1
20260906033401 49 286 1.0 3.0 0.00 0.00 0.00 89 1004.0
20260906032859 49 326 0.0 3.0 0.00 0.00 0.00 89 1004.0
20260906032401 49 348 0.0 2.0 0.00 0.00 0.00 89 1003.9
20260906031902 49 317 1.0 2.0 0.00 0.00 0.00 89 1003.8
20260906031359 49 289 0.0 2.0 0.00 0.00 0.00 89 1003.8
20260906030856 49 0 0.0 2.0 0.00 0.00 0.00 89 1003.7
20260906030359 49 350 0.0 3.0 0.00 0.00 0.00 90 1003.7
20260906025359 49 343 0.0 1.0 0.00 0.00 0.00 90 1003.5
20260906024856 49 344 0.0 2.0 0.00 0.00 0.00 90 1003.5
20260906024403 49 0 0.0 2.0 0.00 0.00 0.00 90 1003.4
20260906023902 49 341 0.0 1.0 0.00 0.00 0.00 90 1003.3
20260906023402 49 341 0.0 1.0 0.00 0.00 0.00 90 1003.3
20260906022901 48 302 0.0 1.0 0.00 0.00 0.00 89 1003.2
20260906022359 48 0 0.0 1.0 0.00 0.00 0.00 89 1003.1
20260906021901 48 0 0.0 1.0 0.00 0.00 0.00 89 1003.2
20260906021402 48 330 0.0 0.0 0.00 0.00 0.00 89 1003.2
20260906020903 48 330 0.0 0.0 0.00 0.00 0.00 89 1003.1
20260906020359 48 331 0.0 1.0 0.00 0.00 0.00 89 1003.0
20260906015900 48 317 0.0 2.0 0.00 0.00 0.00 89 1003.0
20260906015400 48 303 0.0 2.0 0.00 0.00 0.00 89 1002.9
20260906013900 48 296 0.0 1.0 0.00 0.00 0.00 89 1002.6
20260906013359 48 298 0.0 2.0 0.00 0.00 0.00 89 1002.5
20260906012902 48 299 1.0 2.0 0.00 0.00 0.00 89 1002.5
20260906011859 48 336 0.0 1.0 0.00 0.00 0.00 89 1002.4
20260906011401 48 296 0.0 1.0 0.00 0.00 0.00 89 1002.5
20260906010901 48 303 0.0 4.0 0.00 0.00 0.00 89 1002.4
20260906005859 49 351 0.0 1.0 0.00 0.00 0.00 89 1002.2
20260906005340 49 317 0.0 0.0 0.00 0.00 0.00 89 1002.3
20260906004838 49 317 0.0 1.0 0.00 0.00 0.00 89 1002.1
20260906004338 49 317 0.0 1.0 0.00 0.00 0.00 89 1002.2
20260906003834 49 303 0.0 1.0 0.00 0.00 0.00 89 1002.1
20260906003337 49 331 0.0 1.0 0.00 0.00 0.00 89 1002.0
20260906002831 49 309 0.0 3.0 0.00 0.00 0.00 89 1001.9
20260906002332 49 340 0.0 3.0 0.00 0.00 0.00 89 1002.0
20260906001834 49 307 0.0 3.0 0.00 0.00 0.00 89 1001.9
20260906001330 49 296 0.0 1.0 0.00 0.00 0.00 89 1001.8
20260906000821 49 307 0.0 1.0 0.00 0.00 0.00 89 1001.9
20260906000314 49 317 0.0 0.0 0.00 0.00 0.00 89 1001.7
20260905235307 50 327 0.0 1.0 0.00 0.00 0.00 89 1001.6
20260905234259 50 302 0.0 2.0 0.00 0.00 0.00 89 1001.4
20260905233802 50 289 0.0 1.0 0.00 0.00 0.00 88 1001.5
20260905233300 50 292 0.0 1.0 0.00 0.00 0.00 88 1001.4
20260905232800 50 319 0.0 2.0 0.00 0.00 0.00 88 1001.3
20260905232257 50 321 0.0 3.0 0.00 0.00 0.00 88 1001.3
20260905231757 50 0 0.0 3.0 0.00 0.00 0.00 88 1001.3
20260905231259 50 0 0.0 4.0 0.00 0.00 0.00 88 1001.2
20260905230307 50 0 0.0 0.0 0.00 0.00 0.00 88 1001.1
20260905225259 51 0 0.0 1.0 0.00 0.00 0.00 88 1001.0
20260905224757 51 0 0.0 1.0 0.00 0.00 0.00 88 1001.0
20260905223759 51 299 0.0 2.0 0.00 0.00 0.00 88 1000.9
20260905223259 51 334 0.0 1.0 0.00 0.00 0.00 88 1000.8
20260905222758 51 333 0.0 1.0 0.00 0.00 0.00 88 1000.8
20260905222301 51 293 0.0 1.0 0.00 0.00 0.00 88 1000.8
20260905221758 51 314 0.0 1.0 0.00 0.00 0.00 88 1000.7
20260905221258 51 314 0.0 1.0 0.00 0.00 0.00 88 1000.7
20260905220802 51 298 0.0 1.0 0.00 0.00 0.00 88 1000.7
20260905220259 51 266 0.0 0.0 0.00 0.00 0.00 88 1000.7
20260905215800 51 266 0.0 0.0 0.00 0.00 0.00 88 1000.6
20260905215259 52 266 0.0 1.0 0.00 0.00 0.00 88 1000.7
20260905214755 52 266 0.0 1.0 0.00 0.00 0.00 88 1000.5
20260905214255 52 336 0.0 0.0 0.00 0.00 0.00 88 1000.5
20260905213756 52 334 0.0 0.0 0.00 0.00 0.00 88 1000.4
20260905213255 52 334 0.0 0.0 0.00 0.00 0.00 88 1000.4
20260905212758 52 333 0.0 1.0 0.00 0.00 0.00 88 1000.4